15min,AgWx,beryljct,423,27SEP2020:00:00:00,54.3,12.87,53.2,52.7,49.8,52.8,47.0,47,56,37,0.513,30.1,32.3,27.0,2.324,2.2,222,18,4.8,-0.00004,-0.00002,63.4,65.2,9,0,.,.,4.28,0.00,0.00
15min,AgWx,beryljct,423,27SEP2020:00:15:00,53.2,12.87,48.1,48.4,49.4,54.0,47.1,48,57,34,0.577,30.2,32.8,26.0,2.433,1.3,201,14,2.5,-0.00015,-0.00018,63.1,65.2,9,0,.,.,4.28,0.00,0.00
15min,AgWx,beryljct,423,27SEP2020:00:30:00,52.6,12.86,58.0,58.4,53.7,58.5,48.3,43,50,37,0.645,31.6,33.5,29.7,1.776,1.4,302,87,2.8,-0.00014,-0.00016,62.9,65.1,9,0,.,.,4.28,0.00,0.00
15min,AgWx,beryljct,423,27SEP2020:00:45:00,52.9,12.85,57.3,57.3,58.0,58.9,57.3,41,44,39,0.691,34.4,35.7,33.4,2.696,1.6,93,40,2.7,-0.00012,-0.00013,62.7,65.1,9,0,.,.,4.28,0.00,0.00
15min,AgWx,beryljct,423,27SEP2020:01:00:00,53.4,12.83,58.0,55.8,55.6,57.3,54.3,48,51,43,0.687,36.1,36.5,34.9,3.924,3.3,201,17,4.5,0.00007,0.00014,62.4,65.0,9,0,.,.,4.28,0.00,0.00
15min,AgWx,beryljct,423,27SEP2020:01:15:00,53.7,12.83,51.0,52.7,56.2,58.3,52.7,42,52,37,0.699,33.5,35.4,31.8,5.612,2.6,135,47,5.6,0.00002,0.00008,62.2,65.0,9,0,.,.,4.28,0.00,0.00
15min,AgWx,beryljct,423,27SEP2020:01:30:00,53.5,12.83,54.7,55.7,53.7,55.8,52.1,51,55,46,0.690,36.0,36.9,34.8,0.877,1.8,325,5.1,5.7,-0.00009,-0.00010,62.0,64.9,9,0,.,.,4.28,0.00,0.00
15min,AgWx,beryljct,423,27SEP2020:01:45:00,53.1,12.82,55.2,55.7,56.0,57.1,54.7,46,49,43,0.735,35.4,36.8,34.3,0.921,1.4,73,39,3.2,-0.00015,-0.00018,61.8,64.8,9,0,.,.,4.29,0.00,0.00
15min,AgWx,beryljct,423,27SEP2020:02:00:00,53.2,12.81,55.3,54.9,55.2,55.6,54.8,54,57,49,0.837,38.9,40.0,36.6,4.932,3.5,82,8.9,6.2,0.00005,0.00011,61.6,64.8,9,0,.,.,4.29,0.00,0.00
15min,AgWx,beryljct,423,27SEP2020:02:15:00,53.4,12.8,55.3,55.4,55.1,55.7,54.5,56,57,54,0.820,39.8,40.1,39.4,1.754,3.2,74,6.4,6.2,0.00002,0.00007,61.4,64.7,9,0,.,.,4.29,0.00,0.00
15min,AgWx,beryljct,423,27SEP2020:02:30:00,53.3,12.8,55.7,55.3,55.1,55.6,54.7,56,57,55,0.846,39.9,40.4,39.3,3.398,2.8,96,8.9,4.2,-0.00002,0.00001,61.2,64.6,9,0,.,.,4.29,0.00,0.00
15min,AgWx,beryljct,423,27SEP2020:02:45:00,53.3,12.78,55.1,54.3,54.8,55.3,54.3,58,59,57,0.846,40.3,40.4,40.1,4.713,3.5,80,5.7,4.7,0.00003,0.00008,61.0,64.6,9,0,.,.,4.29,0.00,0.00
15min,AgWx,beryljct,423,27SEP2020:03:00:00,53.0,12.77,51.6,52.1,53.2,54.5,52.1,60,61,58,0.799,39.8,40.3,38.8,3.529,3.5,54,11,4.6,0.00002,0.00006,60.9,64.5,9,0,.,.,4.29,0.00,0.00
15min,AgWx,beryljct,423,27SEP2020:03:15:00,52.4,12.77,51.9,51.5,51.6,52.1,51.2,60,61,59,0.786,38.3,38.8,38.1,1.754,2.1,33,18,4.0,-0.00009,-0.00010,60.7,64.4,9,0,.,.,4.29,0.00,0.00
15min,AgWx,beryljct,423,27SEP2020:03:30:00,51.7,12.76,51.8,51.6,51.2,51.7,50.8,61,62,60,0.795,38.4,38.8,38.0,0.811,0.9,44,28,2.0,-0.00022,-0.00031,60.5,64.4,9,0,.,.,4.29,0.00,0.00
15min,AgWx,beryljct,423,27SEP2020:03:45:00,51.1,12.76,51.2,51.7,51.2,51.7,50.4,62,64,61,0.810,38.8,39.2,38.3,1.403,0.5,326,43,2.9,-0.00027,-0.00040,60.4,64.3,9,0,.,.,4.30,0.00,0.00
15min,AgWx,beryljct,423,27SEP2020:04:00:00,50.7,12.75,50.9,51.4,51.5,51.8,51.2,63,64,62,0.830,39.4,40.0,38.9,2.74,1.8,106,48,4.3,-0.00013,-0.00016,60.2,64.2,9,0,.,.,4.29,0.00,0.00
15min,AgWx,beryljct,423,27SEP2020:04:15:00,50.4,12.74,51.1,50.9,51.0,51.6,50.2,64,65,64,0.813,39.5,40.0,39.0,1.841,2.7,51,20,3.8,-0.00006,-0.00005,60.1,64.1,10,0,.,.,4.29,0.00,0.00
15min,AgWx,beryljct,423,27SEP2020:04:30:00,50.1,12.74,50.7,50.2,50.6,51.2,49.6,64,66,63,0.808,39.0,39.2,38.7,0.723,0.8,20,11,2.5,-0.00023,-0.00033,59.9,64.0,9,0,.,.,4.29,0.00,0.00
15min,AgWx,beryljct,423,27SEP2020:04:45:00,49.5,12.72,50.2,49.7,50.0,50.2,49.7,66,66,65,0.801,38.9,39.1,38.7,1.82,0.8,31,27,2.9,-0.00024,-0.00034,59.7,64.0,9,0,.,.,4.30,0.00,0.00
15min,AgWx,beryljct,423,27SEP2020:05:00:00,49.1,12.72,48.3,48.4,48.7,49.8,48.2,69,70,66,0.805,38.9,39.2,38.5,2.433,2.3,63,7.5,3.1,-0.00010,-0.00012,59.6,63.9,9,0,.,.,4.30,0.00,0.00
15min,AgWx,beryljct,423,27SEP2020:05:15:00,48.6,12.71,48.7,48.0,47.9,48.3,47.6,70,71,69,0.804,38.7,39.1,38.4,3.442,3.0,54,8.5,4.1,-0.00006,-0.00006,59.4,63.8,9,0,.,.,4.30,0.00,0.00
15min,AgWx,beryljct,423,27SEP2020:05:30:00,48.3,12.7,49.1,48.6,48.5,48.7,48.1,70,71,69,0.806,39.1,39.4,38.8,2.631,3.1,59,7.5,4.5,-0.00006,-0.00005,59.2,63.7,9,0,.,.,4.29,0.00,0.00
15min,AgWx,beryljct,423,27SEP2020:05:45:00,48.0,12.71,48.3,47.8,48.5,48.9,47.7,69,70,67,0.794,38.6,39.0,38.3,3.529,3.4,39,8.3,4.3,0.00024,0.00042,59.1,63.6,9,0,.,.,4.30,0.00,0.00
15min,AgWx,beryljct,423,27SEP2020:06:00:00,47.9,12.7,49.5,49.2,48.5,49.3,47.7,68,70,66,0.790,38.6,38.9,38.0,4.889,3.7,12,15,4.9,0.00027,0.00047,58.9,63.6,9,0,.,.,4.29,0.00,0.00
15min,AgWx,beryljct,423,27SEP2020:06:15:00,47.8,12.7,46.8,46.6,47.1,49.3,46.3,71,74,66,0.787,38.3,38.5,38.1,2.981,3.3,337,15,4.7,0.00022,0.00038,58.8,63.5,9,0,.,.,4.29,0.00,0.00
15min,AgWx,beryljct,423,27SEP2020:06:30:00,47.4,12.69,48.2,48.1,47.5,48.1,46.5,71,73,69,0.798,38.4,38.7,38.2,2.126,2.4,326,13,3.5,0.00018,0.00031,58.6,63.4,9,3,.,.,4.30,0.00,0.00
15min,AgWx,beryljct,423,27SEP2020:06:45:00,47.1,12.71,47.8,47.4,47.8,48.2,47.2,70,72,69,0.786,38.6,38.8,38.3,0.855,2.4,329,8.6,3.7,0.00028,0.00041,58.5,63.3,9,20,.,.,4.29,0.00,0.00
15min,AgWx,beryljct,423,27SEP2020:07:00:00,47.3,12.77,47.7,47.9,47.8,48.2,47.2,70,71,69,0.793,38.5,38.6,38.2,0,1.1,301,19,2.8,0.00041,0.00049,58.3,63.2,9,60,.,.,4.29,0.00,0.00
15min,AgWx,beryljct,423,27SEP2020:07:15:00,47.9,12.86,50.2,49.9,48.9,49.9,47.9,69,71,67,0.818,39.1,39.5,38.6,0,0.7,278,8.1,2.4,0.00054,0.00061,58.2,63.1,9,100,.,.,4.29,0.00,0.00
15min,AgWx,beryljct,423,27SEP2020:07:30:00,49.4,13.01,50.5,50.4,50.1,50.4,49.7,67,68,66,0.823,39.5,40.0,39.1,2.214,2.2,24,18,4.3,0.00083,0.00101,58.1,63.1,9,144,.,.,4.29,0.00,0.00
15min,AgWx,beryljct,423,27SEP2020:07:45:00,51.3,13.29,52.2,51.7,51.0,51.7,50.3,66,68,64,0.835,39.9,40.7,39.5,1.776,2.7,41,9.3,4.2,0.00109,0.00131,58.0,63.0,9,191,.,.,4.29,0.00,0.00
15min,AgWx,beryljct,423,27SEP2020:08:00:00,53.6,13.64,55.0,54.7,53.3,54.7,51.8,62,65,60,0.887,40.8,41.8,39.9,3.902,3.0,40,11,5.0,0.00138,0.00166,57.9,62.9,9,240,.,.,4.29,0.00,0.00
15min,AgWx,beryljct,423,27SEP2020:08:15:00,56.0,14.39,56.6,56.3,55.6,56.3,54.8,59,61,56,0.891,41.3,42.7,40.4,7.695,6.0,44,9.7,8.2,0.00185,0.00237,57.8,62.8,9,290,.,.,4.28,0.00,0.00
15min,AgWx,beryljct,423,27SEP2020:08:30:00,58.2,14.35,58.5,58.7,57.6,58.9,56.3,56,59,52,0.883,42.0,43.1,40.9,9.32,8.0,43,12,10.9,0.00226,0.00296,57.7,62.7,9,339,.,.,4.28,0.00,0.00
15min,AgWx,beryljct,423,27SEP2020:08:45:00,60.1,14.26,59.7,59.8,59.2,59.8,58.5,52,56,50,0.887,41.8,43.5,40.9,15.48,11.7,41,12,17.4,0.00276,0.00375,57.7,62.6,9,388,.,.,4.28,0.00,0.00
15min,AgWx,beryljct,423,27SEP2020:09:00:00,61.7,14.26,61.2,60.2,60.2,60.8,59.8,50,52,48,0.885,41.3,42.5,40.6,9.47,13.8,43,9.9,19.9,0.00317,0.00436,57.7,62.6,9,436,.,.,4.27,0.00,0.00
15min,AgWx,beryljct,423,27SEP2020:09:15:00,62.9,14.28,61.7,61.2,61.1,61.5,60.3,47,50,46,0.856,40.9,41.8,40.1,15.28,16.4,48,8.6,22.0,0.00356,0.00496,57.8,62.5,9,481,.,.,4.27,0.00,0.00
15min,AgWx,beryljct,423,27SEP2020:09:30:00,64.1,14.19,62.1,62.0,61.9,62.2,61.3,46,47,44,0.860,40.7,41.7,39.7,18.06,15.6,41,11,21.7,0.00381,0.00525,57.9,62.4,9,523,.,.,4.27,0.00,0.00
15min,AgWx,beryljct,423,27SEP2020:09:45:00,65.0,14.22,62.6,62.9,62.5,63.0,62.0,44,46,43,0.868,40.5,41.4,40.1,16.95,16.2,43,11,22.1,0.00410,0.00563,58.1,62.3,9,565,.,.,4.27,0.00,0.00
15min,AgWx,beryljct,423,27SEP2020:10:00:00,65.8,14.16,63.6,62.9,62.8,63.3,62.5,43,45,42,0.821,40.2,41.6,39.5,15.74,17.4,45,10,22.5,0.00434,0.00598,58.2,62.3,9,603,.,.,4.26,0.00,0.00
15min,AgWx,beryljct,423,27SEP2020:10:15:00,66.6,14.21,65.3,63.9,63.6,64.5,62.9,43,45,41,0.869,40.5,41.8,39.7,12.12,15.8,40,9.3,20.4,0.00452,0.00612,58.5,62.2,9,638,.,.,4.26,0.00,0.00
15min,AgWx,beryljct,423,27SEP2020:10:30:00,67.3,13.75,65.5,64.7,64.6,65.3,64.1,42,43,41,0.858,41.0,42.4,40.1,14.64,14.8,44,14,19.7,0.00473,0.00632,58.7,62.2,9,669,.,.,4.26,0.00,0.00
15min,AgWx,beryljct,423,27SEP2020:10:45:00,68.0,13.75,64.1,65.3,64.8,65.6,64.0,41,43,40,0.877,40.8,42.2,40.0,16.35,14.9,44,13,20.2,0.00488,0.00651,59.0,62.1,9,698,.,.,4.25,0.00,0.00
15min,AgWx,beryljct,423,27SEP2020:11:00:00,68.6,13.72,65.4,65.3,65.3,66.2,64.7,41,43,40,0.857,40.9,42.2,40.2,18,14.8,46,13,19.2,0.00506,0.00672,59.3,62.0,9,724,.,.,4.25,0.00,0.00
15min,AgWx,beryljct,423,27SEP2020:11:15:00,69.3,13.73,66.4,66.2,65.7,66.3,65.0,40,42,39,0.882,41.0,42.4,40.0,17.16,14.2,43,15,20.4,0.00518,0.00682,59.7,62.0,9,745,.,.,4.25,0.00,0.00
15min,AgWx,beryljct,423,27SEP2020:11:30:00,70.0,13.67,65.5,65.8,66.2,66.8,65.4,40,41,38,0.844,41.0,42.4,39.4,13.61,14.4,44,17,19.6,0.00532,0.00702,60.0,62.0,9,764,.,.,4.25,0.00,0.00
15min,AgWx,beryljct,423,27SEP2020:11:45:00,70.6,13.77,67.0,66.7,66.5,67.4,65.7,39,42,38,0.863,41.1,42.4,39.8,12.96,15.3,49,12,21.4,0.00545,0.00723,60.5,61.9,9,777,.,.,4.25,0.00,0.00
15min,AgWx,beryljct,423,27SEP2020:12:00:00,71.1,13.68,68.3,67.8,67.1,67.9,66.5,39,40,37,0.895,41.0,42.4,39.5,12.43,14.0,47,15,20.2,0.00552,0.00725,60.9,61.9,9,788,.,.,4.25,0.00,0.00
15min,AgWx,beryljct,423,27SEP2020:12:15:00,71.6,13.65,67.7,68.3,67.7,68.4,66.7,38,39,36,0.879,41.0,42.5,39.2,13.85,14.2,50,14,21.9,0.00564,0.00743,61.3,61.9,9,795,.,.,4.25,0.00,0.00
15min,AgWx,beryljct,423,27SEP2020:12:30:00,72.1,13.63,68.6,68.1,68.0,68.8,67.3,37,40,35,0.869,40.7,43.6,39.5,12.78,14.2,51,13,19.1,0.00572,0.00754,61.7,61.9,9,800,.,.,4.25,0.00,0.00
15min,AgWx,beryljct,423,27SEP2020:12:45:00,72.5,13.63,67.5,69.0,68.5,69.2,67.6,36,38,35,0.858,40.5,41.7,39.4,13.09,14.9,51,14,20.7,0.00581,0.00771,62.2,61.9,9,800,.,.,4.25,0.00,0.00
15min,AgWx,beryljct,423,27SEP2020:13:00:00,72.9,13.63,69.4,69.1,69.1,69.9,68.5,35,37,33,0.833,40.4,41.7,39.1,12.87,14.8,56,17,21.2,0.00586,0.00780,62.7,61.9,9,793,.,.,4.25,0.00,0.00
15min,AgWx,beryljct,423,27SEP2020:13:15:00,73.5,13.62,68.4,69.2,69.2,70.0,68.5,34,36,33,0.813,40.0,41.5,38.8,21.57,15.5,57,12,21.9,0.00586,0.00787,63.1,62.0,9,783,.,.,4.25,0.01,0.00
15min,AgWx,beryljct,423,27SEP2020:13:30:00,73.9,13.68,69.8,70.1,69.6,70.6,68.6,34,36,32,0.831,39.9,42.2,38.5,14.25,14.5,45,13,23.3,0.00582,0.00779,63.6,62.0,9,772,.,.,4.25,0.00,0.00
15min,AgWx,beryljct,423,27SEP2020:13:45:00,74.4,13.62,71.7,70.1,69.8,70.5,69.2,32,35,31,0.842,39.0,41.1,37.9,10.3,14.8,54,12,21.5,0.00580,0.00783,64.1,62.1,9,754,.,.,4.25,0.00,0.00
15min,AgWx,beryljct,423,27SEP2020:14:00:00,75.0,13.57,70.5,70.2,70.2,71.0,69.6,31,34,29,0.760,38.4,41.0,36.8,15.76,14.0,51,14,20.9,0.00571,0.00770,64.5,62.1,9,733,.,.,4.25,0.00,0.00
15min,AgWx,beryljct,423,27SEP2020:14:15:00,75.4,13.57,71.5,71.1,70.5,71.1,69.9,30,32,28,0.833,37.7,39.8,36.1,10.04,14.2,45,16,20.6,0.00566,0.00771,64.9,62.2,9,710,.,.,4.25,0.00,0.00
15min,AgWx,beryljct,423,27SEP2020:14:30:00,75.8,13.63,70.5,70.7,71.0,72.0,70.4,30,32,28,0.758,38.0,39.7,35.8,18.02,15.0,52,17,21.9,0.00559,0.00771,65.3,62.3,9,681,.,.,4.25,0.00,0.00
15min,AgWx,beryljct,423,27SEP2020:14:45:00,75.8,13.55,70.5,71.1,70.6,71.2,70.0,30,32,28,0.758,37.7,39.0,36.3,18.79,15.9,60,12,21.5,0.00529,0.00745,65.7,62.4,9,617,.,.,4.25,0.00,0.00
15min,AgWx,beryljct,423,27SEP2020:15:00:00,75.8,13.53,71.7,71.1,70.9,71.4,70.3,29,31,27,0.732,37.0,38.6,34.8,15.3,15.4,49,14,20.8,0.00530,0.00747,66.0,62.4,9,613,.,.,4.25,0.00,0.00
15min,AgWx,beryljct,423,27SEP2020:15:15:00,75.9,13.53,70.2,71.2,70.9,71.4,70.6,28,31,26,0.744,36.6,38.5,34.7,11.88,15.1,49,13,20.3,0.00511,0.00726,66.4,62.5,9,578,.,.,4.25,0.00,0.00
15min,AgWx,beryljct,423,27SEP2020:15:30:00,76.0,13.55,70.7,71.1,71.2,71.7,70.7,28,30,26,0.688,36.1,38.2,34.2,13.81,14.1,44,14,20.3,0.00485,0.00692,66.6,62.6,9,540,.,.,4.25,0.00,0.00
15min,AgWx,beryljct,423,27SEP2020:15:45:00,76.1,13.55,70.3,70.6,71.0,71.4,70.6,28,30,26,0.674,35.9,38.1,34.1,15.94,14.3,51,8.6,19.6,0.00464,0.00671,66.9,62.7,9,499,.,.,4.25,0.00,0.00
15min,AgWx,beryljct,423,27SEP2020:16:00:00,76.0,13.55,71.0,71.1,71.1,71.5,70.6,27,29,26,0.684,35.9,37.0,34.8,13.42,14.0,43,10,19.1,0.00437,0.00640,67.1,62.8,9,453,.,.,4.25,0.00,0.00
15min,AgWx,beryljct,423,27SEP2020:16:15:00,75.8,13.6,70.5,70.6,70.7,71.1,70.2,28,29,26,0.728,35.7,37.2,34.5,15.96,15.1,44,9.9,23.6,0.00420,0.00630,67.2,62.9,9,407,.,.,4.25,0.00,0.00
15min,AgWx,beryljct,423,27SEP2020:16:30:00,75.3,13.58,70.2,70.2,70.4,70.7,70.2,28,29,27,0.691,35.4,36.7,34.5,14.97,15.4,41,8.7,20.2,0.00396,0.00607,67.4,63.1,9,359,.,.,4.26,0.00,0.00
15min,AgWx,beryljct,423,27SEP2020:16:45:00,74.8,13.58,70.0,70.3,70.1,70.3,69.9,27,29,26,0.671,34.7,36.1,33.6,17.16,15.7,45,9.9,19.9,0.00375,0.00587,67.5,63.2,9,313,.,.,4.25,0.00,0.00
15min,AgWx,beryljct,423,27SEP2020:17:00:00,74.1,13.57,69.4,69.4,69.7,70.2,69.4,26,28,25,0.675,33.7,34.6,32.3,11.73,15.9,42,10,20.2,0.00353,0.00567,67.5,63.3,9,266,.,.,4.26,0.00,0.00
15min,AgWx,beryljct,423,27SEP2020:17:15:00,73.4,13.6,69.1,69.0,69.3,69.6,68.9,24,28,23,0.615,31.4,34.8,30.0,16.33,15.0,36,11,18.7,0.00320,0.00527,67.5,63.4,9,217,.,.,4.25,0.00,0.00
15min,AgWx,beryljct,423,27SEP2020:17:30:00,72.4,13.62,67.8,67.8,68.4,69.0,67.8,26,27,25,0.594,31.9,33.1,31.2,17.1,15.6,40,11,20.6,0.00150,0.00179,67.5,63.5,9,168,.,.,4.26,0.00,0.00
15min,AgWx,beryljct,423,27SEP2020:17:45:00,71.3,13.68,66.6,66.7,67.1,67.8,66.6,27,27,26,0.592,31.6,32.4,31.1,14.82,14.5,50,8.9,20.1,0.00133,0.00161,67.4,63.6,9,121,.,.,4.26,0.00,0.00
15min,AgWx,beryljct,423,27SEP2020:18:00:00,69.9,13.28,65.3,65.8,66.3,66.7,65.6,27,28,26,0.577,30.9,31.7,30.1,11.29,13.6,45,8.5,20.3,0.00121,0.00147,67.2,63.7,9,80,.,.,4.26,0.00,0.00
15min,AgWx,beryljct,423,27SEP2020:18:15:00,68.3,13.11,64.4,64.1,65.0,65.8,64.1,27,29,27,0.585,30.6,31.1,30.0,10.68,11.6,40,8.6,15.9,0.00100,0.00124,67.1,63.8,9,30,.,.,4.26,0.00,0.00
15min,AgWx,beryljct,423,27SEP2020:18:30:00,66.5,13.05,62.3,62.3,63.2,64.2,62.3,30,32,29,0.608,31.5,32.0,31.0,9.69,9.6,47,8.4,13.9,0.00077,0.00099,66.9,63.9,9,7,.,.,4.26,0.00,0.00
15min,AgWx,beryljct,423,27SEP2020:18:45:00,64.6,13.02,60.4,61.2,61.5,62.4,60.9,33,34,32,0.607,31.9,32.3,31.3,6.796,8.2,49,7.3,11.3,0.00062,0.00081,66.6,64.0,9,1,.,.,4.26,0.00,0.00
15min,AgWx,beryljct,423,27SEP2020:19:00:00,63.0,13,59.9,59.9,60.8,61.2,59.9,33,34,32,0.594,31.4,31.8,31.1,6.708,7.6,57,8.4,9.8,0.00056,0.00075,66.4,64.0,9,0,.,.,4.26,0.00,0.00
15min,AgWx,beryljct,423,27SEP2020:19:15:00,61.6,12.98,58.0,58.2,59.0,59.9,58.2,34,35,34,0.583,31.0,31.5,30.5,4.954,6.2,54,8.7,9.0,0.00043,0.00059,66.2,64.1,9,0,.,.,4.26,0.00,0.00
15min,AgWx,beryljct,423,27SEP2020:19:30:00,60.1,12.98,57.6,57.6,57.7,58.2,57.2,35,36,34,0.557,30.4,30.9,29.7,6.686,5.6,59,8.1,9.7,0.00036,0.00051,65.9,64.2,9,0,.,.,4.26,0.00,0.00
15min,AgWx,beryljct,423,27SEP2020:19:45:00,59.2,12.96,58.4,58.5,58.0,58.7,57.4,33,35,31,0.529,29.1,29.8,28.4,9.16,8.4,55,7.5,11.5,0.00057,0.00074,65.6,64.2,10,0,.,.,4.27,0.00,0.00
15min,AgWx,beryljct,423,27SEP2020:20:00:00,58.8,12.96,58.3,58.1,58.2,58.7,57.8,32,32,31,0.517,28.3,28.6,27.9,9.86,9.7,51,6.8,12.9,0.00066,0.00083,65.3,64.3,9,0,.,.,4.27,0.00,0.00
15min,AgWx,beryljct,423,27SEP2020:20:15:00,58.4,12.95,57.5,57.5,57.7,58.1,57.4,32,33,31,0.529,28.1,28.5,27.8,11.71,10.4,46,7.5,13.6,0.00068,0.00085,65.0,64.3,9,0,.,.,4.27,0.00,0.00
15min,AgWx,beryljct,423,27SEP2020:20:30:00,58.2,12.94,57.3,57.4,57.6,57.7,57.4,33,33,32,0.531,28.5,28.7,28.2,11.16,11.4,44,6.5,14.6,0.00071,0.00088,64.7,64.4,9,0,.,.,4.27,0.00,0.00
15min,AgWx,beryljct,423,27SEP2020:20:45:00,57.8,12.94,56.1,56.2,56.9,57.4,56.2,34,35,33,0.535,28.9,29.2,28.6,9.84,10.5,41,6.4,13.9,0.00064,0.00081,64.5,64.4,9,0,.,.,4.27,0.00,0.00
15min,AgWx,beryljct,423,27SEP2020:21:00:00,57.2,12.94,54.9,54.8,55.7,56.3,54.8,36,37,34,0.536,28.9,29.2,28.6,6.971,8.8,40,7.7,11.4,0.00053,0.00069,64.2,64.4,9,0,.,.,4.27,0.00,0.00
15min,AgWx,beryljct,423,27SEP2020:21:15:00,56.4,12.92,55.6,55.0,54.5,55.0,54.1,37,37,35,0.521,28.5,28.8,28.1,12.96,8.7,38,8.1,13.0,0.00050,0.00064,64.0,64.4,9,0,.,.,4.27,0.00,0.00
15min,AgWx,beryljct,423,27SEP2020:21:30:00,55.9,12.93,54.1,54.0,54.8,55.1,54.0,36,37,35,0.521,28.1,28.5,27.9,9.56,9.7,47,6.5,13.9,0.00056,0.00071,63.7,64.4,9,0,.,.,4.27,0.00,0.00
15min,AgWx,beryljct,423,27SEP2020:21:45:00,55.2,12.91,53.1,53.1,53.7,54.1,53.1,36,37,36,0.506,27.6,28.0,27.1,6.489,8.1,44,7.4,10.8,0.00047,0.00061,63.5,64.4,9,0,.,.,4.27,0.00,0.00
15min,AgWx,beryljct,423,27SEP2020:22:00:00,54.4,12.91,51.6,52.0,52.6,53.4,51.8,36,37,36,0.488,26.7,27.2,26.2,6.138,5.5,41,8.9,8.3,0.00031,0.00043,63.2,64.4,9,0,.,.,4.27,0.00,0.00
15min,AgWx,beryljct,423,27SEP2020:22:15:00,53.5,12.92,50.9,50.7,51.4,52.3,50.4,37,40,36,0.484,26.3,27.0,25.7,6.489,6.8,51,20,8.7,0.00037,0.00049,63.0,64.3,9,0,.,.,4.27,0.00,0.00
15min,AgWx,beryljct,423,27SEP2020:22:30:00,52.4,12.88,49.4,49.0,49.7,50.8,48.9,40,40,38,0.466,26.1,26.6,25.4,4.165,5.5,48,16,8.4,0.00026,0.00037,62.7,64.3,9,0,.,.,4.27,0.00,0.00
15min,AgWx,beryljct,423,27SEP2020:22:45:00,51.2,12.88,46.2,46.4,47.9,49.2,46.3,41,45,39,0.483,25.5,26.3,25.1,3.661,3.1,52,20,4.7,0.00007,0.00013,62.5,64.3,9,0,.,.,4.27,0.00,0.00
15min,AgWx,beryljct,423,27SEP2020:23:00:00,49.9,12.89,47.0,47.2,47.0,47.6,46.2,43,46,41,0.454,25.6,26.5,24.6,2.609,3.7,70,11,5.4,0.00010,0.00017,62.2,64.2,9,0,.,.,4.28,0.01,0.00
15min,AgWx,beryljct,423,27SEP2020:23:15:00,49.0,12.89,48.2,47.7,47.4,47.9,46.8,39,42,38,0.427,24.0,24.8,23.3,5.02,3.0,59,36,6.1,0.00006,0.00012,62.0,64.2,9,0,.,.,4.27,0.00,0.00
15min,AgWx,beryljct,423,27SEP2020:23:30:00,48.5,12.88,48.6,48.2,47.9,48.6,47.2,38,40,36,0.417,23.5,24.3,22.8,2.981,4.6,28,8.7,7.2,0.00020,0.00030,61.7,64.2,9,0,.,.,4.27,0.00,0.00
15min,AgWx,beryljct,423,27SEP2020:23:45:00,48.3,12.86,49.3,49.7,49.5,49.9,48.3,33,36,32,0.399,21.9,22.7,21.4,4.823,3.7,13,18,6.0,0.00016,0.00025,61.5,64.1,9,0,.,.,4.28,0.00,0.00
15min,AgWx,bigpiney,439,27SEP2020:00:00:00,39.3,12.56,39.7,39.3,38.8,39.5,37.6,59,61,57,0.465,25.5,25.8,25.3,0,2.5,340,13,5.5,0.00004,0.00007,47.5,48.0,44,0,0,0.0,0.05,0.00,0.00
15min,AgWx,bigpiney,439,27SEP2020:00:15:00,39.0,12.56,39.0,39.0,38.5,39.6,37.4,57,59,56,0.463,24.8,25.4,23.4,3.135,2.3,211,54,6.3,0.00002,0.00005,47.4,47.9,44,0,0,0.0,0.05,0.00,0.00
15min,AgWx,bigpiney,439,27SEP2020:00:30:00,38.9,12.55,37.4,39.2,39.4,39.9,38.1,56,58,55,0.453,25.0,25.3,24.2,1.6,2.0,270,87,6.2,0.00001,0.00003,47.3,47.9,44,0,0,0.0,0.05,0.00,0.00
15min,AgWx,bigpiney,439,27SEP2020:00:45:00,38.9,12.54,38.3,37.4,38.8,39.8,37.4,57,59,55,0.449,24.9,25.4,24.4,2.696,2.6,256,39,4.9,0.00004,0.00007,47.3,47.9,44,0,0,0.0,0.05,0.00,0.00
15min,AgWx,bigpiney,439,27SEP2020:01:00:00,38.6,12.54,34.7,34.0,35.9,37.9,33.4,62,66,58,0.440,23.9,24.9,22.3,3.047,2.8,246,17,6.0,0.00003,0.00006,47.2,47.9,44,0,0,0.0,0.05,0.00,0.00
15min,AgWx,bigpiney,439,27SEP2020:01:15:00,37.9,12.52,37.0,36.1,35.0,36.1,34.0,65,66,64,0.476,24.4,25.9,23.4,5.809,2.8,306,42,6.8,0.00002,0.00004,47.2,47.9,44,0,0,0.0,0.05,0.00,0.00
15min,AgWx,bigpiney,439,27SEP2020:01:30:00,37.3,12.52,36.2,36.0,36.3,36.5,36.0,66,66,66,0.475,26.0,26.2,25.8,3.069,3.3,334,17,6.2,0.00004,0.00007,47.1,47.9,44,0,0,0.0,0.05,0.00,0.00
15min,AgWx,bigpiney,439,27SEP2020:01:45:00,36.9,12.52,34.2,33.3,34.7,36.4,33.2,68,71,66,0.443,25.3,26.2,23.6,1.82,1.9,98,80,6.0,-0.00002,-0.00002,47.0,47.9,44,0,0,0.0,0.05,0.00,0.00
15min,AgWx,bigpiney,439,27SEP2020:02:00:00,36.2,12.5,28.1,31.4,32.4,34.0,31.0,70,73,67,0.418,23.8,25.5,22.3,3.486,2.7,225,39,6.2,0.00000,0.00001,47.0,47.9,44,0,0,0.0,0.05,0.00,0.00
15min,AgWx,bigpiney,439,27SEP2020:02:15:00,35.3,12.49,35.4,34.4,31.8,34.4,30.5,73,76,69,0.495,24.2,26.9,21.7,8.68,4.3,278,26,11.1,0.00003,0.00005,46.9,47.9,44,0,0,0.0,0.05,0.00,0.00
15min,AgWx,bigpiney,439,27SEP2020:02:30:00,35.1,12.48,37.1,37.1,36.2,37.3,34.5,69,73,67,0.499,27.0,27.3,26.8,11.09,10.5,316,8.9,13.8,0.00016,0.00019,46.9,47.9,44,0,0,0.0,0.05,0.00,0.00
15min,AgWx,bigpiney,439,27SEP2020:02:45:00,35.6,12.48,36.2,36.0,36.3,37.2,35.6,68,69,67,0.488,26.6,27.1,26.2,7.98,9.9,305,7.1,14.2,0.00016,0.00020,46.8,47.8,44,0,0,0.0,0.05,0.00,0.00
15min,AgWx,bigpiney,439,27SEP2020:03:00:00,36.1,12.47,35.7,36.0,36.2,36.6,35.8,67,68,67,0.480,26.4,26.6,26.1,7.103,7.9,303,7.7,10.7,0.00014,0.00017,46.7,47.8,44,0,0,0.0,0.05,0.00,0.00
15min,AgWx,bigpiney,439,27SEP2020:03:15:00,36.4,12.45,36.4,36.1,35.8,36.2,35.5,68,68,67,0.482,26.1,26.4,26.0,6.445,6.5,294,6.6,7.8,0.00011,0.00015,46.7,47.8,44,0,0,0.0,0.05,0.00,0.00
15min,AgWx,bigpiney,439,27SEP2020:03:30:00,36.4,12.45,36.2,36.4,36.2,36.5,36.0,67,68,66,0.479,26.2,26.4,26.0,4.582,5.8,284,7.2,7.5,0.00010,0.00014,46.6,47.8,44,0,0,0.0,0.05,0.00,0.00
15min,AgWx,bigpiney,439,27SEP2020:03:45:00,36.4,12.44,33.5,33.2,35.1,36.4,33.2,68,70,66,0.451,25.4,26.1,24.5,4.45,4.4,268,10,5.6,0.00007,0.00010,46.5,47.8,44,0,0,0.0,0.05,0.00,0.00
15min,AgWx,bigpiney,439,27SEP2020:04:00:00,36.0,12.43,35.1,34.5,33.8,34.6,33.2,70,71,69,0.464,25.1,25.5,24.6,5.152,4.7,278,11,5.5,0.00006,0.00008,46.5,47.8,44,0,0,0.0,0.05,0.00,0.00
15min,AgWx,bigpiney,439,27SEP2020:04:15:00,35.6,12.42,34.3,33.5,34.1,34.7,33.4,69,70,68,0.456,25.0,25.3,24.7,5.765,5.0,306,8.1,6.2,0.00007,0.00010,46.4,47.7,44,0,0,0.0,0.05,0.00,0.00
15min,AgWx,bigpiney,439,27SEP2020:04:30:00,35.2,12.42,32.4,32.3,33.5,34.4,32.3,70,72,69,0.446,24.6,25.2,23.7,4.362,5.0,311,18,8.7,0.00007,0.00009,46.4,47.7,44,0,0,0.0,0.05,0.00,0.00
15min,AgWx,bigpiney,439,27SEP2020:04:45:00,34.7,12.41,31.3,31.4,31.6,32.4,31.1,73,73,72,0.435,23.8,24.4,23.4,2.85,3.7,312,14,4.7,0.00002,0.00004,46.3,47.7,44,0,0,0.0,0.05,0.00,0.00
15min,AgWx,bigpiney,439,27SEP2020:05:00:00,34.1,12.4,31.5,31.5,31.0,32.2,29.3,74,77,71,0.433,23.5,24.8,22.2,3.683,2.7,332,23,6.3,-0.00001,-0.00000,46.3,47.7,44,0,0,0.0,0.05,0.00,0.00
15min,AgWx,bigpiney,439,27SEP2020:05:15:00,33.6,12.39,33.2,32.5,31.5,32.5,31.2,73,74,72,0.455,23.9,24.9,23.5,5.371,4.5,311,6.5,6.4,0.00004,0.00006,46.2,47.7,44,0,0,0.0,0.05,0.00,0.00
15min,AgWx,bigpiney,439,27SEP2020:05:30:00,33.4,12.38,32.5,32.7,32.9,33.1,32.6,72,73,72,0.453,24.9,25.0,24.6,4.932,5.2,309,5.4,6.0,0.00006,0.00008,46.1,47.6,44,0,0,0.0,0.05,0.00,0.00
15min,AgWx,bigpiney,439,27SEP2020:05:45:00,33.3,12.37,31.7,31.4,32.2,32.7,31.4,74,75,72,0.447,24.7,25.0,24.4,5.108,5.0,312,5.7,5.9,0.00005,0.00007,46.1,47.6,44,0,0,0.0,0.05,0.00,0.00
15min,AgWx,bigpiney,439,27SEP2020:06:00:00,33.1,12.37,30.9,30.6,31.0,31.5,30.6,75,76,75,0.437,24.0,24.4,23.8,5.744,5.3,302,4.9,6.1,0.00004,0.00006,46.0,47.6,44,0,0,0.0,0.05,0.00,0.00
15min,AgWx,bigpiney,439,27SEP2020:06:15:00,32.8,12.36,31.0,30.9,30.9,31.2,30.7,75,76,75,0.440,24.0,24.2,23.8,5.327,5.7,301,4.6,6.4,0.00005,0.00007,46.0,47.6,44,3,0,0.0,0.05,0.00,0.00
15min,AgWx,bigpiney,439,27SEP2020:06:30:00,32.5,12.39,31.2,30.9,31.0,31.4,30.7,75,76,74,0.438,24.1,24.5,23.8,4.801,5.3,302,6.9,6.4,-0.00010,0.00002,45.9,47.6,44,20,0,0.0,0.05,0.00,0.00
15min,AgWx,bigpiney,439,27SEP2020:06:45:00,32.4,12.45,32.5,31.8,31.2,31.9,30.9,74,75,73,0.445,24.0,24.3,23.8,5.48,5.0,297,7.5,5.6,0.00001,0.00013,45.9,47.5,44,53,0,0.0,0.05,0.00,0.00
15min,AgWx,bigpiney,439,27SEP2020:07:00:00,32.7,12.63,34.8,34.6,33.2,34.6,31.9,71,73,68,0.463,24.8,25.3,24.3,4.713,5.3,294,6.0,7.0,0.00018,0.00035,45.8,47.6,44,90,0,0.0,0.05,0.00,0.00
15min,AgWx,bigpiney,439,27SEP2020:07:15:00,33.5,13.07,38.3,37.7,36.0,37.7,34.5,65,69,59,0.454,25.2,25.6,24.8,9.05,6.5,299,12,9.9,0.00044,0.00070,45.8,47.5,44,130,0,0.0,0.05,0.00,0.00
15min,AgWx,bigpiney,439,27SEP2020:07:30:00,35.1,13.47,39.3,39.0,38.5,39.0,37.7,58,59,56,0.454,24.8,25.4,24.4,6.599,7.0,314,9.6,10.1,0.00072,0.00109,45.7,47.5,44,174,0,0.0,0.05,0.00,0.00
15min,AgWx,bigpiney,439,27SEP2020:07:45:00,37.4,13.72,41.0,40.7,39.8,40.7,39.0,54,56,51,0.451,24.5,25.0,23.8,9.27,8.4,326,12,13.0,0.00101,0.00148,45.7,47.5,44,219,0,0.0,0.05,0.00,0.00
15min,AgWx,bigpiney,439,27SEP2020:08:00:00,39.7,14.7,42.5,41.9,41.2,41.9,40.7,50,52,49,0.460,24.1,25.1,23.4,5.941,10.0,335,9.4,14.8,0.00134,0.00193,45.6,47.4,44,269,0,0.0,0.05,0.00,0.00
15min,AgWx,bigpiney,439,27SEP2020:08:15:00,42.0,14.72,43.7,43.0,42.2,43.1,41.7,48,51,47,0.447,24.0,25.2,23.5,6.752,9.5,331,11,13.4,0.00165,0.00228,45.6,47.4,44,339,0,0.0,0.05,0.00,0.00
15min,AgWx,bigpiney,439,27SEP2020:08:30:00,44.4,14.7,43.8,43.5,43.5,44.2,42.8,46,49,43,0.417,24.0,25.4,22.7,8,9.2,330,15,14.3,0.00207,0.00274,45.5,47.4,44,427,0,0.0,0.05,0.00,0.00